#timestamp,LO_Frequency,Hit,StdDev 
1698123615.5,286047000.1,P
1698123635.4,286047002.8,P
1698123655.2,286047002.4,N
1698123675.0,286047002.4,N
1698123675.9,286047002.4,N
1698123695.8,286047000.1,N
1698123715.6,286047002.3,N
1698123735.4,286047002.8,N
1698123755.3,286047001.1,N
1698123775.1,286046998.1,N
1698123795.9,286047000.5,N
1698123815.7,286047002.8,N
1698123835.5,286047001.0,N
1698123855.4,286047001.4,N
1698123875.2,286047002.5,N
1698123895.0,286047002.8,N
1698123896.0,286047002.8,N
1698123915.8,286047002.1,N
1698123935.6,286047002.6,N
1698123955.5,286047001.8,N
1698123975.3,286047002.2,N
1698123995.1,286047000.6,N
1698124015.9,286047002.2,N
1698124035.7,286047000.1,N
1698124055.6,286046999.8,N
1698124075.4,286047002.7,N
1698124095.2,286047004.1,Y
1698124115.1,286046999.9,P
1698124116.0,286046999.9,N
1698124135.8,286047001.0,N
1698124155.6,286047000.5,N
1698124175.5,286047000.5,N
1698124195.3,286047000.8,N
1698124215.2,286047002.6,Y
1698124235.9,286047000.3,P
1698124255.7,286047000.7,P
1698124275.6,286046999.0,P
1698124295.4,286047001.0,N
1698124315.2,286046998.9,N
1698124335.1,286047001.2,N
1698124336.0,286047001.2,N
1698124355.8,286046996.6,Y
1698124375.7,286046997.2,P
1698124395.5,286046996.7,N
1698124415.3,286046998.1,N
1698124435.2,286046998.1,N
1698124455.0,286046998.2,N
1698124455.9,286046998.2,N
1698124475.8,286046998.2,N
1698124495.6,286047000.8,N
1698124515.4,286046997.1,N
1698124535.3,286047000.7,N
1698124555.1,286046998.3,N
1698124575.8,286046999.5,N
1698124595.7,286046998.9,N
1698124615.5,286046999.6,N
1698124635.4,286046997.2,N
1698124655.2,286046998.4,N
1698124675.0,286046999.6,N
1698124675.9,286046999.6,N
1698124695.8,286046998.4,N
1698124715.6,286046997.0,N
1698124735.4,286046998.5,N
1698124755.3,286046999.3,N
1698124775.1,286046999.2,N
1698124795.9,286046999.5,N
1698124815.7,286046998.5,N
1698124835.5,286046998.9,N
1698124855.4,286046999.3,N
1698124875.2,286046999.2,N
1698124895.0,286046998.3,N
1698124895.9,286046998.3,N
1698124915.8,286046998.7,N
1698124935.6,286046999.2,N
1698124955.5,286046997.4,N
1698124975.3,286046996.5,Y
1698124995.1,286046998.3,P
1698125015.9,286046998.2,P
1698125035.7,286046998.1,P
1698125055.6,286046998.8,Y
1698125075.4,286047000.4,P
1698125095.2,286047000.1,N
1698125115.1,286046998.2,N
1698125116.0,286046998.2,N
1698125135.8,286047000.6,N
1698125155.6,286047001.2,N
1698125175.5,286046998.3,N
1698125195.3,286046998.1,N
1698125215.2,286047000.2,N
1698125235.9,286047000.1,N
1698125255.7,286046999.7,N
1698125275.6,286047001.7,N
1698125295.4,286047001.9,N
1698125315.2,286047000.9,N
1698125335.1,286047000.2,N
1698125336.0,286047000.2,N
1698125355.8,286047002.8,N
1698125375.7,286047002.5,N
1698125395.5,286047002.2,N
1698125415.3,286047002.0,N
1698125435.2,286047002.8,N
1698125455.0,286046999.7,N
1698125455.9,286046999.7,N
1698125475.7,286047001.9,N
1698125495.6,286047006.0,Y
1698125515.4,286047002.2,P
1698125535.3,286047001.7,N
1698125555.1,286047001.4,N
1698125556.0,286047001.4,N
1698125575.8,286047003.9,Y
1698125595.7,286046998.5,P
1698125615.5,286046998.9,N
1698125635.4,286046999.3,N
1698125655.2,286046999.0,N
1698125675.0,286046996.5,Y
1698125675.9,286046996.5,P
1698125695.8,286047000.0,N
1698125715.6,286046998.5,N
1698125735.4,286047001.0,N
1698125755.3,286046998.6,N
1698125775.1,286047000.4,N
1698125795.9,286046998.1,N
1698125815.7,286047001.2,N
1698125835.5,286046998.7,N
1698125855.4,286046998.1,N
1698125875.2,286047001.0,N
1698125895.0,286047000.8,N
1698125895.9,286047000.8,N
1698125915.8,286047000.2,N
1698125935.6,286047000.1,N
1698125955.5,286047000.6,N
1698125975.3,286047002.1,N
1698125995.1,286047000.2,N
1698126015.9,286047000.1,N
1698126035.7,286047000.1,N
1698126055.5,286046998.1,N
1698126075.4,286046998.8,N
1698126095.2,286047000.5,N
1698126115.1,286046998.2,N
1698126116.0,286046998.2,N
1698126135.8,286047000.8,N
1698126155.6,286047000.3,N
1698126175.5,286047002.4,N
1698126195.3,286047002.8,N
1698126215.1,286047000.8,N
1698126235.9,286047000.9,N
1698126255.7,286047001.8,N
1698126275.6,286047002.5,N
1698126295.4,286047002.6,N
1698126315.2,286047004.3,Y
1698126335.1,286047001.3,P
1698126336.0,286047001.3,N
1698126355.8,286047000.9,N
1698126375.7,286047000.8,N
1698126395.5,286047000.7,N
1698126415.3,286046999.7,N
1698126435.2,286047000.9,N
1698126455.9,286047000.4,N
1698126475.7,286046999.9,N
1698126495.6,286047001.5,N
1698126515.4,286047001.5,N
1698126535.3,286047001.3,N
1698126555.1,286047002.6,Y
1698126556.0,286047002.6,P
1698126575.8,286047004.4,P
1698126595.7,286047002.7,N
1698126615.5,286046999.9,N
1698126635.3,286046999.4,N
1698126655.2,286047000.4,N
1698126675.0,286047000.5,N
1698126675.9,286047000.5,N
1698126695.8,286047002.7,N
1698126715.6,286047002.2,N
1698126735.4,286047002.3,N
1698126755.3,286047002.7,N
1698126775.1,286047002.1,N
1698126795.8,286046999.0,N
1698126815.7,286047001.1,N
1698126835.5,286046999.3,N
1698126855.4,286046998.3,N
1698126875.2,286046999.1,N
1698126895.0,286046996.5,N
1698126895.9,286046996.5,N
1698126915.8,286046997.2,N
1698126935.6,286046999.2,N
1698126955.4,286046996.6,N
1698126975.3,286046999.1,N
1698126995.1,286046999.2,N
1698127015.9,286046998.8,N
1698127035.7,286046999.2,N
1698127055.5,286046998.7,N
1698127075.4,286046996.7,N
1698127095.2,286046998.9,N
1698127115.0,286046999.3,N
1698127116.0,286046999.3,N
1698127135.8,286046998.8,N
1698127155.6,286046999.1,N
1698127175.5,286046998.1,N
1698127195.3,286047000.5,N
